This demonstration page uses our WeatherBlox Daily Observations layout. Learn more.

Left ArrowRight Arrow

Hourly Observations for July 12, 2020

Temp ( °F °C ) Dew Point ( °F °C ) Humidity (%) Winds ( mph kmh ) Pressure ( in mb ) Visibility ( mi km ) Precip ( " mm )
12:15 am 00:15 Clear 72 22 63 17 73 73 W 3 6 29.81 1009 10 16.0934 0 0
12:35 am 00:35 Clear 72 22 61 16 69 69 WSW 5 7 29.81 1009 10 16.0934 0 0
12:55 am 00:55 Clear 72 22 61 16 69 69 Calm 29.81 1009 10 16.0934 0 0
1:15 am 01:15 Clear 72 22 61 16 69 69 WSW 5 7 29.81 1009 10 16.0934 0 0
1:35 am 01:35 Clear 72 22 61 16 69 69 WSW 5 7 29.81 1009 10 16.0934 0 0
1:55 am 01:55 Clear 72 22 61 16 69 69 W 6 9 29.81 1009 10 16.0934 0 0
2:15 am 02:15 Clear 70 21 61 16 73 73 W 7 11 29.8 1009 10 16.0934 0 0
2:35 am 02:35 Clear 70 21 61 16 73 73 WNW 3 6 29.8 1009 10 16.0934 0 0
2:55 am 02:55 Clear 70 21 61 16 73 73 Calm 29.79 1009 10 16.0934 0 0
3:15 am 03:15 Clear 70 21 61 16 73 73 Calm 29.79 1009 10 16.0934 0 0
3:35 am 03:35 Clear 70 21 61 16 73 73 SW 3 6 29.79 1009 10 16.0934 0 0
3:55 am 03:55 Clear 70 21 61 16 73 73 WSW 5 7 29.78 1008 10 16.0934 0 0
4:15 am 04:15 Clear 68 20 61 16 78 78 Calm 29.77 1008 10 16.0934 0 0
4:35 am 04:35 Clear 68 20 61 16 78 78 Calm 29.78 1009 10 16.0934 0 0
4:55 am 04:55 Clear 68 20 61 16 78 78 Calm 29.78 1009 10 16.0934 0 0
5:15 am 05:15 Clear 68 20 61 16 78 78 Calm 29.78 1009 10 16.0934 0 0
5:35 am 05:35 Clear 66 19 61 16 83 83 WSW 5 7 29.79 1009 10 16.0934 0 0
5:55 am 05:55 Clear 66 19 61 16 83 83 WSW 3 6 29.79 1009 10 16.0934 0 0
6:15 am 06:15 Sunny 66 19 61 16 83 83 Calm 29.79 1009 10 16.0934 0 0
6:35 am 06:35 Sunny 68 20 61 16 78 78 SW 3 6 29.8 1009 10 16.0934 0 0
6:55 am 06:55 Sunny 68 20 61 16 78 78 Calm 29.8 1009 10 16.0934 0 0
7:15 am 07:15 Sunny 70 21 63 17 78 78 Calm 29.8 1009 10 16.0934 0 0
7:35 am 07:35 Sunny 72 22 63 17 73 73 Calm 29.81 1009 10 16.0934 0 0
7:55 am 07:55 Sunny 73 23 63 17 69 69 Calm 29.81 1009 10 16.0934 0 0
8:15 am 08:15 Sunny 75 24 64 18 69 69 Calm 29.82 1010 10 16.0934 0 0
8:35 am 08:35 Sunny 77 25 64 18 65 65 Calm 29.81 1010 10 16.0934 0 0
8:55 am 08:55 Sunny 79 26 64 18 61 61 Calm 29.81 1010 10 16.0934 0 0
9:15 am 09:15 Sunny 81 27 64 18 58 58 W 3 6 29.81 1010 10 16.0934 0 0
9:35 am 09:35 Sunny 81 27 64 18 58 58 W 3 6 29.81 1010 10 16.0934 0 0
9:55 am 09:55 Sunny 81 27 64 18 58 58 Calm 29.81 1010 10 16.0934 0 0
10:15 am 10:15 Partly Cloudy 82 28 64 18 55 55 W 3 6 29.81 1009 10 16.0934 0 0
10:35 am 10:35 Partly Cloudy 82 28 66 19 58 58 WNW 7 11 29.81 1009 10 16.0934 0 0
10:55 am 10:55 Sunny 82 28 64 18 55 55 NNE 3 6 29.81 1009 10 16.0934 0 0
11:15 am 11:15 Sunny 84 29 64 18 51 51 SSE 6 9 29.8 1009 7 11.26538 0 0
11:35 am 11:35 Sunny 84 29 64 18 51 51 Calm 29.79 1009 10 16.0934 0 0
11:55 am 11:55 Sunny 86 30 64 18 49 49 S 5 7 29.79 1009 10 16.0934 0 0
12:15 pm 12:15 Partly Cloudy 86 30 64 18 49 49 SSW 6 9 29.78 1008 10 16.0934 0 0
12:35 pm 12:35 Partly Cloudy 86 30 64 18 49 49 SSW 6 9 29.78 1008 10 16.0934 0 0
12:55 pm 12:55 Mostly Cloudy 86 30 64 18 49 49 SSE 9 15 29.77 1008 10 16.0934 0 0
1:15 pm 13:15 Mostly Cloudy 88 31 64 18 46 46 SW 5 7 29.77 1008 10 16.0934 0 0
1:35 pm 13:35 Cloudy 88 31 64 18 46 46 Calm 29.77 1008 10 16.0934 0 0
1:55 pm 13:55 Mostly Cloudy 86 30 64 18 49 49 Calm 29.76 1008 10 16.0934 0 0
2:15 pm 14:15 Cloudy 86 30 64 18 49 49 Calm 29.76 1008 10 16.0934 0 0
2:35 pm 14:35 Mostly Cloudy 86 30 64 18 49 49 SW 8 13 29.75 1007 10 16.0934 0 0
2:55 pm 14:55 Partly Cloudy 90 32 63 17 41 41 S 9 15 29.74 1007 10 16.0934 0 0
3:15 pm 15:15 Sunny 90 32 63 17 41 41 S 10 17 29.73 1007 10 16.0934 0 0
3:35 pm 15:35 Mostly Cloudy 90 32 64 18 43 43 S 9 15 29.73 1007 10 16.0934 0 0
3:55 pm 15:55 Mostly Cloudy 88 31 66 19 49 49 S 7 11 29.73 1007 10 16.0934 0 0
4:15 pm 16:15 Cloudy 88 31 64 18 46 46 WSW 5 7 29.73 1007 10 16.0934 0 0
4:35 pm 16:35 Mostly Cloudy 88 31 64 18 46 46 SW 7 11 29.73 1007 10 16.0934 0 0
4:55 pm 16:55 Partly Cloudy 88 31 64 18 46 46 SSW 6 9 29.73 1007 10 16.0934 0 0
5:15 pm 17:15 Partly Cloudy 88 31 63 17 43 43 Calm 29.73 1007 10 16.0934 0 0
5:35 pm 17:35 Mostly Cloudy 81 27 68 20 66 66 NNE 7 11 29.73 1007 10 16.0934 0 0
5:55 pm 17:55 Cloudy 81 27 68 20 66 66 NNE 6 9 29.73 1007 10 16.0934 0 0
6:15 pm 18:15 Cloudy 77 25 72 22 83 83 NW 13 20 29.75 1008 10 16.0934 0 0
6:35 pm 18:35 Partly Cloudy 77 25 72 22 83 83 NW 5 7 29.74 1007 10 16.0934 0 0
6:55 pm 18:55 Sunny 79 26 70 21 74 74 Calm 29.73 1007 10 16.0934 0 0
7:15 pm 19:15 Mostly Cloudy 79 26 70 21 74 74 Calm 29.75 1008 10 16.0934 0 0
7:35 pm 19:35 Cloudy 77 25 70 21 79 79 Calm 29.76 1008 10 16.0934 0 0
7:55 pm 19:55 Cloudy 77 25 70 21 79 79 NE 5 7 29.77 1008 10 16.0934 0 0
8:15 pm 20:15 Mostly Cloudy 77 25 70 21 79 79 NE 3 6 29.77 1008 10 16.0934 0 0
8:35 pm 20:35 Cloudy 77 25 70 21 79 79 Calm 29.77 1008 10 16.0934 0 0
8:55 pm 20:55 Mostly Cloudy 73 23 72 22 94 94 Calm 29.79 1009 10 16.0934 0 0
9:15 pm 21:15 Partly Cloudy 73 23 70 21 89 89 W 3 6 29.8 1009 10 16.0934 0 0
9:35 pm 21:35 Partly Cloudy 73 23 70 21 89 89 W 5 7 29.81 1009 10 16.0934 0 0
9:55 pm 21:55 Partly Cloudy 72 22 70 21 94 94 N 7 11 29.82 1010 10 16.0934 0 0
10:15 pm 22:15 Clear 72 22 68 20 88 88 NNW 7 11 29.82 1010 10 16.0934 0 0
10:35 pm 22:35 Clear 72 22 68 20 88 88 NNW 3 6 29.82 1010 10 16.0934 0 0
10:55 pm 22:55 Clear 72 22 68 20 88 88 NNW 3 6 29.82 1010 10 16.0934 0 0
11:15 pm 23:15 Clear 70 21 68 20 94 94 W 3 6 29.82 1010 10 16.0934 0 0
11:35 pm 23:35 Clear 70 21 68 20 94 94 WNW 5 7 29.82 1010 10 16.0934 0 0
11:55 pm 23:55 Clear 70 21 68 20 94 94 WNW 5 7 29.82 1010 10 16.0934 0 0

Powered by AerisWeather